Theta_e
302 301 301 300 300 299 298 298 297 296 296 295 295 295 295 296 297 299 299 301 300 297 300 308 312 316 319 324 327 328 330 330
302 301 300 300 300 299 298 298 297 296 295 295 294 294 295 295 296 298 299 300 300 298 298 305 310 314 315 320 324 327 329 329
302 301 299 299 299 299 298 298 297 296 295 295 294 295 295 295 296 297 299 300 300 299 297 301 308 312 312 317 321 325 327 328
301 300 299 298 298 297 297 297 296 295 295 294 294 295 294 295 295 296 298 300 300 300 299 299 306 310 312 315 318 320 322 328
301 300 299 298 297 297 297 296 296 295 295 295 294 294 294 295 295 296 298 300 301 300 299 300 302 307 311 315 316 318 321 326
301 299 298 297 297 296 296 296 296 295 294 294 295 294 295 295 295 296 297 297 299 299 298 299 301 305 309 313 314 317 319 320
300 299 298 297 297 296 296 295 295 295 294 294 294 294 294 295 295 296 296 295 296 297 298 298 300 303 307 311 313 314 317 320
300 299 298 297 297 296 296 295 295 294 294 294 294 294 294 294 295 295 294 295 295 297 297 298 299 301 306 310 313 313 315 319
300 299 298 297 297 296 296 295 294 294 294 294 294 294 294 294 294 294 295 295 296 296 297 298 298 300 304 308 312 314 315 318
300 299 298 297 297 296 296 295 295 295 294 294 294 294 294 295 294 295 295 295 296 296 297 297 299 300 303 308 311 314 314 314
300 299 298 297 296 296 296 295 295 295 294 294 294 293 294 294 295 295 295 296 296 296 296 297 297 300 303 307 311 313 313 314
300 299 298 297 296 296 296 295 295 295 294 294 294 294 295 295 295 295 295 295 295 296 296 296 298 300 302 306 310 313 315 316
299 299 298 297 296 296 295 295 295 294 294 294 294 293 294 294 295 295 295 294 295 295 295 296 297 300 302 304 308 311 313 316
299 299 298 298 297 296 295 295 295 294 294 294 294 292 295 293 295 296 295 294 294 295 295 296 295 298 300 304 306 309 313 315
300 299 299 298 298 297 295 294 294 293 293 294 294 294 293 294 294 294 294 294 294 294 295 295 295 295 298 301 306 307 310 310
300 299 298 298 297 297 296 295 294 293 293 293 293 294 294 294 293 294 295 295 294 295 295 295 294 293 295 297 300 304 306 309
300 299 298 298 297 297 296 295 294 293 293 293 293 294 295 294 293 294 294 295 294 295 295 295 294 291 293 295 297 300 302 305
300 299 298 298 297 297 296 295 295 293 293 293 293 293 294 294 292 294 294 294 293 294 294 295 295 290 292 294 296 298 299 300
301 299 299 298 297 296 295 295 294 293 293 293 293 292 293 295 293 294 294 294 293 293 293 293 294 292 290 294 296 296 297 299
Wind_Speed
23 24 23 21 19 20 20 18 13 14 13 15 16 20 21 17 18 15 18 22 22 19 14 10 9 10 4 10 26 24 23 20
17 24 24 27 17 17 16 12 10 9 17 15 15 17 20 17 16 15 13 17 25 21 16 10 8 10 8 4 10 25 23 17
20 20 21 21 21 20 15 12 12 10 7 12 13 18 17 18 16 12 13 15 21 21 19 12 7 7 11 3 3 11 27 22
20 20 20 18 18 18 15 6 7 10 13 10 12 13 16 18 14 12 16 12 17 19 20 15 7 6 11 6 2 11 12 18
19 18 19 17 16 18 11 10 10 12 10 9 10 13 15 16 15 16 14 11 9 15 18 14 10 6 8 9 4 5 10 12
16 18 16 15 13 11 14 10 6 12 14 9 10 13 16 15 16 15 16 15 14 14 16 12 11 7 6 6 9 7 8 13
15 15 14 13 12 12 12 13 12 11 10 11 12 13 15 15 17 13 14 17 14 14 12 12 12 8 6 6 7 9 10 14
14 13 12 11 11 10 9 11 11 10 11 10 11 12 13 14 14 15 17 13 11 11 13 17 13 8 5 3 4 8 12 10
12 11 10 11 11 9 9 10 9 9 9 10 12 13 12 13 13 15 13 11 10 9 10 13 14 9 5 4 1 4 10 11
11 11 8 8 9 8 8 8 9 9 10 10 11 9 10 10 12 12 14 10 8 11 10 11 11 8 4 3 1 2 6 16
11 10 8 8 7 7 8 8 8 9 10 9 9 9 10 11 12 11 10 8 9 10 11 11 11 5 2 1 1 2 5 14
10 9 8 8 7 7 7 7 7 8 8 7 8 8 7 9 12 11 10 10 7 11 11 9 8 6 4 2 3 3 4 10
9 9 8 7 7 7 7 8 6 8 6 6 7 9 9 10 9 13 11 9 10 11 11 11 9 5 4 6 5 4 3 5
9 8 9 8 7 7 7 6 6 6 6 7 6 9 7 9 7 7 11 10 9 11 11 11 11 8 5 5 7 6 8 5
9 9 9 8 7 6 6 5 6 5 5 6 7 8 9 7 8 10 9 12 12 11 10 12 12 10 6 4 4 5 3 0
9 9 8 8 7 6 6 5 5 5 4 5 6 7 8 8 6 6 10 11 10 10 10 10 10 12 9 4 3 4 3 1
8 8 8 8 7 7 5 6 6 5 4 4 5 5 6 12 5 5 8 8 8 8 9 9 11 12 11 10 5 1 1 1
8 8 8 7 7 6 6 6 6 5 5 5 5 5 5 8 3 6 7 6 6 6 7 7 12 11 10 10 8 6 4 2
9 9 8 8 7 6 6 5 6 7 6 6 5 5 4 7 8 6 7 6 6 5 5 5 5 8 8 9 10 12 9 6
Wind_Direction
324 315 310 306 285 284 286 288 292 315 325 326 326 317 325 318 321 316 327 317 327 332 325 305 311 318 254 224 227 234 223 185
327 327 322 331 304 295 286 268 293 313 322 329 328 320 320 320 316 315 329 318 324 338 325 307 313 320 326 258 226 218 212 216
336 333 332 322 327 313 313 281 281 290 306 324 330 318 319 314 320 316 325 332 320 333 337 331 317 299 334 320 237 230 220 211
339 338 334 333 329 335 337 305 337 331 320 350 330 318 314 324 327 333 329 336 310 327 336 333 311 313 339 359 248 240 223 214
338 341 338 335 331 332 327 319 324 318 312 337 321 322 318 320 326 319 325 6 333 324 329 331 325 313 331 22 356 259 243 188
346 344 337 333 344 348 350 353 301 331 352 336 324 319 323 324 323 329 324 326 3 327 332 337 337 311 312 354 16 8 254 228
348 341 337 339 340 338 335 337 351 334 331 324 326 321 323 321 319 335 316 313 322 332 339 336 330 321 308 310 332 349 334 249
339 340 339 337 342 340 338 341 340 333 326 327 331 324 323 324 328 332 333 319 318 333 347 342 334 330 321 302 324 308 322 290
341 342 334 334 336 340 337 340 342 341 338 339 332 330 329 327 328 322 333 321 343 351 340 335 336 322 308 314 2 339 338 330
346 341 333 333 330 334 336 341 340 341 340 341 337 332 336 334 317 331 334 336 352 342 341 341 337 317 323 312 281 298 294 319
340 341 337 331 321 322 327 336 338 339 341 337 338 347 334 326 337 341 0 357 346 356 343 342 336 356 8 311 125 25 333 334
336 338 337 329 320 321 323 324 335 334 345 353 355 335 347 347 346 359 346 354 3 7 358 350 5 34 57 55 119 126 42 339
330 328 323 317 319 316 318 323 328 337 348 349 354 350 16 352 356 342 11 356 23 5 12 15 7 31 79 77 108 112 87 332
327 326 323 316 308 308 305 311 319 333 337 338 339 358 358 19 1 358 7 8 24 9 16 24 3 33 43 69 77 88 137 190
312 313 314 314 299 293 294 294 305 319 328 338 339 343 359 4 2 23 22 17 10 11 18 25 2 26 41 66 84 89 104 324
300 304 303 304 304 290 286 280 283 304 316 322 328 337 329 332 8 40 25 12 2 11 15 18 359 27 31 38 77 95 129 124
287 291 293 296 295 284 279 259 259 271 288 308 317 330 324 323 327 41 28 2 1 7 17 21 9 26 26 23 12 25 129 216
273 277 278 279 280 273 262 261 254 257 269 286 307 311 316 321 347 19 2 355 6 10 4 34 350 20 33 24 29 27 11 19
255 256 258 263 261 257 247 244 246 260 264 273 284 295 304 305 342 347 328 341 354 13 357 358 9 12 26 35 35 23 9 6